Flag for Belgium Weather past 2 weeks in Liège, Belgium

Now
61 °F

Fog.


Feels Like: 61 °F
Forecast: 63 / 78 °F
Wind: 2 mph from Northwest

Location: Bierset

Current Time: Jul 23, 2014 at 7:18:11 AM

Latest Report: Jul 23, 2014 at 6:20 AM


Visibility: 2 mi

Pressure: 30.07 "Hg

Humidity: 100%

Dew point: 61 °F

Location of LiègeLocation

Historic Weather in Liège — Graph

°F

Liège temperature yesterday

Maximum temperature yesterday: 77 °F (at 2:50 PM)
Minimum temperature yesterday: 64 °F (at 12:20 AM)
Average temperature yesterday: 69 °F

Past Weeks' High & Low Weather Summary

 TemperatureHumidityPressure
High91 °F (Jul 18, 5:20 PM)100% (Jul 8, 9:50 PM)30.18 "Hg (Jul 8, 9:50 PM)
Low54 °F (Jul 8, 8:50 PM)27% (Jul 19, 1:20 PM)29.74 "Hg (Jul 9, 4:50 PM)
Average67 °F78%29.96 "Hg
* Reported Jul 8 5:20 AM — Jul 23 5:50 AM, Liège, Weather by CustomWeather, © 2014

Note: Actual official high and low records may vary slightly from our data, if they occured in-between our weather recording intervals... More about our weather records

Advertising

Liège weather history for previous 24 hours

 ConditionsComfort  
Time TempWeatherWind HumidityBarometerVisibility
5:50 AM
Jul 23
63 °FFog.2 mph94%30.07 "Hg3 mi
5:20 AM64 °FClear.1 mph88%30.07 "Hg4 mi
4:50 AM63 °FClear.2 mph94%30.07 "Hg4 mi
4:20 AM64 °FClear.6 mph88%30.09 "Hg4 mi
3:50 AM64 °FClear.2 mph94%30.09 "Hg4 mi
3:20 AM64 °FClear.3 mph88%30.09 "Hg4 mi
2:50 AM64 °FClear.5 mph94%30.09 "Hg4 mi
2:20 AM64 °FClear.5 mph88%30.09 "Hg4 mi
1:50 AM64 °FClear.5 mph88%30.09 "Hg6 mi
6:50 PM
Jul 22
75 °FPassing clouds.12 mph69%30.07 "HgN/A
6:20 PM77 °FPassing clouds.9 mph65%30.07 "HgN/A
5:50 PM77 °FPassing clouds.8 mph61%30.07 "HgN/A
5:20 PM77 °FPassing clouds.8 mph61%30.07 "HgN/A
4:50 PM77 °FPassing clouds.8 mph61%30.07 "HgN/A
4:20 PM77 °FPassing clouds.9 mph57%30.07 "HgN/A
3:50 PM77 °FPassing clouds.9 mph54%30.07 "HgN/A
3:20 PM77 °FScattered clouds.9 mph51%30.07 "HgN/A
2:50 PM77 °FScattered clouds.9 mph54%30.07 "HgN/A
2:20 PM75 °FScattered clouds.8 mph65%30.07 "HgN/A
1:50 PM75 °FScattered clouds.6 mph69%30.07 "HgN/A
1:20 PM73 °FScattered clouds.8 mph74%30.07 "HgN/A
12:50 PM73 °FPartly sunny.8 mph74%30.07 "Hg5 mi
12:20 PM72 °FPartly sunny.7 mph83%30.07 "Hg4 mi
11:50 AM70 °FFog.6 mph88%30.07 "Hg3 mi
11:20 AM68 °FFog.5 mph88%30.07 "Hg1 mi
10:50 AM66 °FFog.6 mph94%30.07 "Hg1 mi
10:20 AM64 °FMild.5 mph100%30.07 "Hg0 mi
9:50 AM64 °FFog.6 mph100%30.07 "Hg0 mi
9:20 AM64 °FFog.7 mph100%30.07 "Hg0 mi
8:50 AM64 °FFog.7 mph100%30.04 "Hg0 mi
8:20 AM64 °FDrizzle. Fog.7 mph94%30.04 "Hg1 mi
7:50 AM64 °FMild.6 mph94%30.04 "Hg0 mi
7:20 AM64 °FDrizzle. Fog.7 mph94%30.04 "Hg0 mi
Weather by CustomWeather, © 2014

See weather overviewHow to use our weather pages